Location: Napa Soda Springs
(38.3907°N, 122.2794°W)
Time: 08:25:49
(UTC+00:00)

Cosmos 614 Rocket - Pass Details

Date: 29 October 2020
Orbit: 734 x 763 km, 74.1° (Epoch: 02 December)

Event Time Altitude Azimuth Distance (km) Brightness Sun altitude
Rises 13:11:06 0° 202° (SSW) 3,189 7.0 -16.6°
Reaches altitude 10° 13:13:28 10° 205° (SSW) 2,264 6.2 -16.1°
Maximum altitude 13:18:35 71° 289° (WNW) 790 3.8 -15.1°
Drops below altitude 10° 13:23:41 10° 14° (NNE) 2,259 6.5 -14.1°
Sets 13:26:03 0° 17° (NNE) 3,182 7.3 -13.7°
